This is the latest recevied weather packets stored in our database for station/object VA3WWD-2. If no packets are shown the sender has not sent any weather packets the latest 10 day(s).
| Time | Temp. | Humidity | Pressure | Rain* | Wind** | Luminosity | Snow |
|---|---|---|---|---|---|---|---|
| 1777494321 | 7.78° C | 65% | - | 0 mm | 0 m/s | - | - |
| 1777490435 | 7.78° C | 63% | - | 0 mm | 0 m/s | - | - |
| 1777488940 | 8.33° C | 63% | - | 0 mm | 0 m/s | - | - |
| 1777487745 | 8.89° C | 62% | - | 0 mm | 0 m/s | - | - |
| 1777486848 | 8.89° C | 61% | - | 0 mm | 0 m/s | - | - |
| 1777486550 | 8.89° C | 61% | - | 0 mm | 0 m/s | - | - |
| 1777482066 | 7.78° C | 61% | - | 0 mm | 0 m/s | - | - |
| 1777481169 | 8.33° C | 63% | - | 0 mm | 0 m/s | - | - |
| 1777480570 | 8.33° C | 64% | - | 0 mm | 0 m/s | - | - |
| 1777480272 | 7.78° C | 65% | - | 0 mm | 0 m/s | - | - |
| 1777473395 | 6.67° C | 72% | - | 0 mm | 0 m/s | - | - |
| 1777473097 | 6.11° C | 72% | - | 0 mm | 0 m/s | - | - |
| 1777472200 | 6.67° C | 73% | - | 0 mm | 0 m/s | - | - |
| 1777471899 | 6.11° C | 74% | - | 0 mm | 0 m/s | - | - |
| 1777471601 | 6.67° C | 74% | - | 0 mm | 0 m/s | - | - |
| 1777471303 | 6.11° C | 74% | - | 0 mm | 0 m/s | - | - |
| 1777471002 | 5.56° C | 74% | - | 0 mm | 0 m/s | - | - |
| 1777469509 | 5° C | 75% | - | 0 mm | 0 m/s | - | - |
| 1777469208 | 5.56° C | 75% | - | 0 mm | 0 m/s | - | - |
| 1777468910 | 5.56° C | 75% | - | 0 mm | 0 m/s | - | - |
| 1777468612 | 5° C | 75% | - | 0 mm | 0 m/s | - | - |
| 1777468311 | 4.44° C | 75% | - | 0 mm | 0 m/s | - | - |
| 1777468013 | 5° C | 75% | - | 0 mm | 0 m/s | - | - |
| 1777467414 | 5° C | 75% | - | 0 mm | 0 m/s | - | - |
| 1777465922 | 5° C | 76% | - | 0 mm | 0 m/s | - | - |
* Rain latest hour (hover to see other rain measurements)
** Current wind speed in m/s (hover to see current wind gust speed)